Hourly Weather Roundup
Issued by NWS

Home | Current Version | Previous Version | Text Only | Print | Product List | Glossary On
Versions: 1 2 3 4 5 6 7 8 9 10 11 12 13 14 15 16 17 18 19 20 21 22 23 24 25 26 27 28 29 30 31 32 33 34 35 36 37 38 39 40 41 42 43 44 45 46 47 48 49 50
000
NZUS43 KILX 301210
HWRCRS

CRS HOURLY WEATHER ROUNDUP
NATIONAL WEATHER SERVICE, LINCOLN IL
700 AM CDT MON MAY 30 2016


CITY           SKY/WX    TMP DP  RH WIND       PRES   REMARKS
CHAMPAIGN      SUNNY     66  59  78 CALM      30.06S
LAWRENCEVILLE  SUNNY     67  64  90 NW3       30.07R
PEORIA         SUNNY     65  60  84 CALM      30.05R
SPRINGFIELD    PTSUNNY   69  63  81 CALM      30.06R
$$


CITY           SKY/WX    TMP DP  RH WIND       PRES   REMARKS
BLOOMINGTON    SUNNY     64  62  93 SW5       30.07R
DECATUR        CLOUDY    66  60  81 MISG      30.06S
EFFINGHAM      SUNNY     64  64 100 CALM      30.08S
FLORA          SUNNY     67  64  93 CALM      30.07S
GALESBURG      SUNNY     62  60  93 CALM      30.04R
JACKSONVILLE   SUNNY     68  63  83 S3        30.07R
LACON          MOSUNNY   65  61  86 CALM      30.03S
LINCOLN        MOSUNNY   66  61  84 CALM      30.05S
LITCHFIELD     SUNNY     65  61  85 S5        30.08R

CITY           SKY/WX    TMP DP  RH WIND       PRES   REMARKS
MACOMB         SUNNY     64  62  94 CALM      30.06R
MATTOON        SUNNY     67  60  78 CALM      30.06S
MOLINE         SUNNY     68  60  75 CALM      30.02R
OLNEY          SUNNY     64  64 100 CALM      30.07S
PARIS          CLOUDY    64  61  87 CALM      30.07S
PONTIAC        CLOUDY    67  62  84 CALM      30.05S
QUINCY         MOSUNNY   66  63  90 SW5       30.07R
RANTOUL        CLOUDY    65  61  87 CALM      30.06S
ROBINSON       SUNNY     60  60  99 CALM      30.08S
TAYLORVILLE    PTSUNNY   65  62  90 W3        30.07R
TERRE HAUTE    CLOUDY    64  60  87 CALM      30.06S
$$


CITY           SKY/WX    TMP DP  RH WIND       PRES   REMARKS
BURLINGTON     MOSUNNY   67  64  90 SW3       30.03R
CHICAGO        MOSUNNY   68  60  75 CALM      30.02R
DES MOINES     PTSUNNY   67  61  81 S6        30.02R
EVANSVILLE     SUNNY     66  62  87 CALM      30.07R
INDIANAPOLIS   CLOUDY    68  58  70 CALM      30.05R
KANSAS CITY    MOSUNNY   65  62  90 S3        30.05R
MILWAUKEE      MOSUNNY   67  58  72 W7        30.01R
ST LOUIS       MOSUNNY   72  62  71 CALM      30.07R
$$





USA.gov is the U.S. government's official web portal to all federal, state and local government web resources and services.